Location: New York
(40.7127°N, 74.0060°W)
Time: 14:15:35
(UTC-04:00)

NOAA 18 - Visible Passes

Search period start: 22 April 2024 00:00
Search period end: 02 May 2024 00:00
Orbit: 838 x 858 km, 98.9° (Epoch: 22 April)

Date Brightness Start Highest point End Pass type
(mag) Time Alt. Az. Time Alt. Az. Time Alt. Az.
22 Apr 7.0 21:31:00 15° ENE 21:32:03 15° ENE 21:35:08 10° NNE visible
22 Apr 5.6 23:12:57 61° NW 23:12:57 61° NW 23:17:33 10° NNW visible
23 Apr 7.2 21:18:17 11° ENE 21:19:47 12° ENE 21:21:44 10° NE visible
23 Apr 5.4 23:00:14 68° N 23:00:14 68° N 23:05:05 10° NNW visible
24 Apr 7.7 00:42:11 12° WNW 00:42:11 12° WNW 00:43:06 10° WNW visible
24 Apr 5.4 22:47:31 61° NE 22:47:31 61° NE 22:52:34 10° N visible
25 Apr 7.4 00:29:27 16° WNW 00:29:27 16° WNW 00:31:38 10° NW visible
25 Apr 5.6 22:34:48 50° ENE 22:34:48 50° ENE 22:39:59 10° N visible
26 Apr 7.2 00:16:45 20° WNW 00:16:45 20° WNW 00:19:44 10° NW visible
26 Apr 5.9 22:22:05 39° ENE 22:22:15 39° ENE 22:27:22 10° N visible
27 Apr 6.8 00:04:01 26° WNW 00:04:01 26° WNW 00:07:40 10° NW visible
27 Apr 6.2 22:09:22 30° ENE 22:09:53 31° ENE 22:14:40 10° N visible
27 Apr 6.5 23:51:18 34° WNW 23:51:18 34° WNW 23:55:28 10° NNW visible
28 Apr 6.5 21:56:38 24° ENE 21:57:31 25° ENE 22:01:54 10° NNE visible
28 Apr 6.0 23:38:35 44° WNW 23:38:35 44° WNW 23:43:11 10° NNW visible
29 Apr 6.8 21:43:55 18° E 21:45:12 20° ENE 21:49:02 10° NNE visible
29 Apr 5.6 23:25:52 57° WNW 23:25:52 57° WNW 23:30:49 10° NNW visible
30 Apr 7.0 21:31:12 14° E 21:32:53 15° ENE 21:35:59 10° NNE visible
30 Apr 5.3 23:13:09 75° WNW 23:13:09 75° WNW 23:18:23 10° NNW visible
01 May 7.3 21:18:34 10° E 21:20:36 12° ENE 21:22:37 10° NE visible
01 May 5.1 23:00:26 82° ENE 23:00:26 82° ENE 23:05:55 10° NNW visible
